Location: Kra?nica
(53.4833°N, 14.6167°E)
Time: 21:00:39
(UTC+00:00)

Cosmos 2181 Rocket - Pass Details

Date: 23 May 2024
Orbit: 951 x 1015 km, 82.9° (Epoch: 20 June)

Event Time Altitude Azimuth Distance (km) Brightness Sun altitude
Rises 01:47:26 0° 347° (NNW) 3,751 7.7 -7.4°
Reaches altitude 10° 01:50:01 10° 345° (NNW) 2,790 6.9 -7.1°
Maximum altitude 01:56:19 64° 266° (W) 1,096 4.1 -6.5°
Drops below altitude 10° 02:02:30 10° 186° (S) 2,729 5.9 -5.9°
Sets 02:05:00 0° 184° (S) 3,663 6.5 -5.7°
